KLM98C GCLP-LEZL

Flight info

Callsign KLM98C
Flight time 1h 59m
Altitude 34000
Route KORAL UG5 SONSO DCT NIRAL UN871 ADUBI DCT VJF
Aircraft A321/M-SDE3FGHIRWY/LB1

Departure

Time 2026-04-23 22:05
Airport Gran Canaria Airport (GCLP)

Arrival

Time 2026-04-24 00:04
Airport Seville Airport (LEZL)
Time Latitude Longitude Altitude Speed Heading
2026-04-23 21:27 27.93981 -15.38765 85 ft 0 kts 291°
2026-04-23 21:51 27.93974 -15.38745 86 ft 4 kts 294°
2026-04-23 21:52 27.93962 -15.38718 86 ft 4 kts 304°
2026-04-23 21:52 27.93945 -15.38696 89 ft 4 kts 330°
2026-04-23 21:52 27.93926 -15.38691 89 ft 1 kts 21°
2026-04-23 21:54 27.93956 -15.38677 86 ft 10 kts 21°
2026-04-23 21:54 27.94027 -15.38646 83 ft 12 kts 21°
2026-04-23 21:55 27.94072 -15.38569 69 ft 14 kts 85°
2026-04-23 21:55 27.94027 -15.38489 71 ft 9 kts 169°
2026-04-23 21:55 27.93985 -15.38500 71 ft 4 kts 193°
2026-04-23 21:55 27.93969 -15.38507 67 ft 1 kts 205°
2026-04-23 21:56 27.93969 -15.38508 67 ft 0 kts 205°
2026-04-23 21:56 27.93941 -15.38520 70 ft 9 kts 199°
2026-04-23 21:56 27.93863 -15.38552 69 ft 13 kts 202°
2026-04-23 21:56 27.93809 -15.38577 75 ft 8 kts 201°
2026-04-23 21:57 27.93763 -15.38597 71 ft 7 kts 201°
2026-04-23 21:57 27.93702 -15.38625 69 ft 15 kts 201°
2026-04-23 21:57 27.93600 -15.38670 69 ft 15 kts 201°
2026-04-23 21:57 27.93504 -15.38713 73 ft 14 kts 201°
2026-04-23 21:58 27.93411 -15.38753 70 ft 14 kts 201°
2026-04-23 21:58 27.93325 -15.38790 65 ft 13 kts 201°
2026-04-23 21:58 27.93247 -15.38823 71 ft 11 kts 200°
2026-04-23 21:58 27.93178 -15.38854 68 ft 10 kts 205°
2026-04-23 21:59 27.93126 -15.38886 70 ft 7 kts 207°
2026-04-23 21:59 27.93089 -15.38903 69 ft 8 kts 200°
2026-04-23 21:59 27.93006 -15.38938 78 ft 17 kts 203°
2026-04-23 22:00 27.92828 -15.39019 87 ft 10 kts 201°
2026-04-23 22:00 27.92741 -15.39057 89 ft 16 kts 200°
2026-04-23 22:00 27.92651 -15.39096 90 ft 12 kts 203°
2026-04-23 22:00 27.92587 -15.39124 91 ft 8 kts 201°
2026-04-23 22:01 27.92509 -15.39158 94 ft 19 kts 201°
2026-04-23 22:01 27.92351 -15.39228 99 ft 28 kts 201°
2026-04-23 22:01 27.92169 -15.39307 97 ft 28 kts 201°
2026-04-23 22:01 27.91988 -15.39387 95 ft 24 kts 201°
2026-04-23 22:02 27.91901 -15.39348 92 ft 15 kts 115°
2026-04-23 22:02 27.91905 -15.39242 89 ft 14 kts 112°
2026-04-23 22:02 27.91867 -15.39133 82 ft 16 kts 111°
2026-04-23 22:02 27.91838 -15.39048 68 ft 6 kts 100°
2026-04-23 22:03 27.91867 -15.39014 73 ft 3 kts 22°
2026-04-23 22:03 27.91868 -15.39013 73 ft 2 kts 22°
2026-04-23 22:04 27.91997 -15.38955 65 ft 51 kts 21°
2026-04-23 22:04 27.92539 -15.38717 52 ft 113 kts 21°
2026-04-23 22:04 27.93432 -15.38326 57 ft 157 kts 20°
2026-04-23 22:04 27.94102 -15.38031 431 ft 155 kts 19°
2026-04-23 22:05 27.95122 -15.37584 997 ft 160 kts 18°
2026-04-23 22:05 27.96183 -15.37152 1539 ft 164 kts 17°
2026-04-23 22:05 27.97280 -15.36717 1953 ft 173 kts 18°
2026-04-23 22:05 27.98492 -15.36233 2103 ft 194 kts 17°
2026-04-23 22:06 27.99830 -15.35694 2229 ft 215 kts 18°
2026-04-23 22:06 28.01320 -15.35084 2438 ft 238 kts 19°
2026-04-23 22:06 28.03296 -15.33913 3260 ft 251 kts 41°
2026-04-23 22:06 28.04059 -15.32877 3744 ft 255 kts 50°
2026-04-23 22:07 28.05110 -15.31239 4431 ft 260 kts 51°
2026-04-23 22:07 28.06172 -15.29566 5104 ft 264 kts 51°
2026-04-23 22:07 28.07245 -15.27866 5766 ft 268 kts 51°
2026-04-23 22:07 28.08335 -15.26136 6425 ft 271 kts 51°
2026-04-23 22:08 28.09441 -15.24383 7016 ft 276 kts 51°
2026-04-23 22:08 28.10552 -15.22623 7588 ft 281 kts 51°
2026-04-23 22:08 28.11716 -15.20783 8178 ft 286 kts 51°
2026-04-23 22:08 28.12889 -15.18936 8753 ft 291 kts 51°
2026-04-23 22:09 28.14079 -15.17063 9322 ft 296 kts 52°
2026-04-23 22:09 28.15274 -15.15180 9887 ft 300 kts 52°
2026-04-23 22:09 28.16503 -15.13238 10314 ft 310 kts 52°
2026-04-23 22:09 28.17805 -15.11186 10431 ft 330 kts 52°
2026-04-23 22:10 28.19169 -15.09035 10738 ft 340 kts 52°
2026-04-23 22:10 28.20563 -15.06830 11207 ft 346 kts 52°
2026-04-23 22:10 28.21965 -15.04601 11684 ft 351 kts 52°
2026-04-23 22:10 28.23384 -15.02340 12173 ft 355 kts 52°
2026-04-23 22:11 28.24827 -15.00044 12652 ft 360 kts 52°
2026-04-23 22:11 28.26297 -14.97710 13170 ft 364 kts 52°
2026-04-23 22:11 28.27779 -14.95358 13671 ft 369 kts 52°
2026-04-23 22:11 28.29282 -14.92970 14144 ft 373 kts 52°
2026-04-23 22:12 28.30798 -14.90562 14589 ft 377 kts 52°
2026-04-23 22:12 28.32323 -14.88135 15061 ft 379 kts 52°
2026-04-23 22:12 28.33862 -14.85685 15538 ft 382 kts 51°
2026-04-23 22:12 28.35406 -14.83226 16007 ft 384 kts 51°
2026-04-23 22:13 28.36960 -14.80745 16479 ft 387 kts 51°
2026-04-23 22:13 28.38528 -14.78242 16941 ft 389 kts 51°
2026-04-23 22:13 28.40102 -14.75730 17402 ft 392 kts 51°
2026-04-23 22:13 28.41668 -14.73230 17856 ft 394 kts 51°
2026-04-23 22:14 28.43268 -14.70677 18338 ft 396 kts 51°
2026-04-23 22:14 28.44863 -14.68132 18756 ft 398 kts 51°
2026-04-23 22:14 28.46475 -14.65554 19142 ft 400 kts 50°
2026-04-23 22:14 28.48090 -14.62973 19530 ft 402 kts 50°
2026-04-23 22:15 28.49714 -14.60373 19922 ft 404 kts 50°
2026-04-23 22:15 28.51342 -14.57763 20307 ft 406 kts 50°
2026-04-23 22:15 28.52983 -14.55130 20675 ft 409 kts 50°
2026-04-23 22:15 28.54632 -14.52482 21043 ft 411 kts 50°
2026-04-23 22:16 28.55726 -14.50725 21304 ft 412 kts 50°
2026-04-23 22:17 28.64814 -14.36106 23166 ft 422 kts 49°
2026-04-23 22:17 28.66508 -14.33377 23482 ft 424 kts 49°
2026-04-23 22:17 28.68217 -14.30624 23776 ft 426 kts 49°
2026-04-23 22:18 28.69925 -14.27870 24014 ft 427 kts 49°
2026-04-23 22:18 28.71640 -14.25099 24265 ft 429 kts 49°
2026-04-23 22:18 28.73364 -14.22315 24511 ft 431 kts 49°
2026-04-23 22:18 28.75097 -14.19517 24744 ft 433 kts 49°
2026-04-23 22:19 28.76838 -14.16703 24969 ft 436 kts 49°
2026-04-23 22:19 28.78586 -14.13870 25207 ft 437 kts 49°
2026-04-23 22:19 28.80343 -14.11027 25453 ft 440 kts 49°
2026-04-23 22:19 28.82106 -14.08169 25677 ft 442 kts 49°
2026-04-23 22:20 28.83880 -14.05288 25908 ft 444 kts 49°
2026-04-23 22:20 28.85634 -14.02436 26159 ft 446 kts 49°
2026-04-23 22:20 28.87444 -13.99490 26411 ft 448 kts 49°
2026-04-23 22:20 28.89237 -13.96578 26648 ft 450 kts 49°
2026-04-23 22:21 28.91040 -13.93652 26903 ft 451 kts 49°
2026-04-23 22:21 28.92825 -13.90751 27147 ft 453 kts 49°
2026-04-23 22:21 28.94636 -13.87801 27392 ft 455 kts 49°
2026-04-23 22:21 28.96452 -13.84836 27648 ft 457 kts 49°
2026-04-23 22:22 28.98282 -13.81847 27871 ft 460 kts 49°
2026-04-23 22:22 29.00117 -13.78851 28092 ft 462 kts 49°
2026-04-23 22:22 29.01963 -13.75833 28346 ft 464 kts 49°
2026-04-23 22:22 29.03815 -13.72808 28600 ft 465 kts 49°
2026-04-23 22:23 29.05674 -13.69770 28814 ft 467 kts 49°
2026-04-23 22:23 29.07540 -13.66715 29050 ft 469 kts 49°
2026-04-23 22:23 29.09408 -13.63654 29275 ft 470 kts 49°
2026-04-23 22:23 29.11285 -13.60574 29486 ft 472 kts 49°
2026-04-23 22:24 29.13160 -13.57494 29730 ft 474 kts 49°
2026-04-23 22:24 29.15053 -13.54385 29927 ft 475 kts 49°
2026-04-23 22:24 29.16917 -13.51323 30145 ft 477 kts 49°
2026-04-23 22:24 29.18818 -13.48198 30343 ft 479 kts 49°
2026-04-23 22:25 29.20724 -13.45061 30486 ft 481 kts 49°
2026-04-23 22:25 29.22638 -13.41910 30657 ft 483 kts 49°
2026-04-23 22:25 29.24555 -13.38748 30837 ft 484 kts 49°
2026-04-23 22:25 29.26475 -13.35575 31015 ft 485 kts 49°
2026-04-23 22:26 29.28400 -13.32394 31193 ft 486 kts 49°
2026-04-23 22:26 29.30331 -13.29209 31363 ft 487 kts 49°
2026-04-23 22:26 29.32261 -13.26025 31624 ft 487 kts 49°
2026-04-23 22:26 29.34190 -13.22837 31875 ft 486 kts 49°
2026-04-23 22:27 29.36112 -13.19654 32119 ft 486 kts 49°
2026-04-23 22:27 29.38032 -13.16471 32363 ft 485 kts 49°
2026-04-23 22:27 29.39950 -13.13290 32604 ft 485 kts 49°
2026-04-23 22:27 29.41869 -13.10105 32800 ft 485 kts 49°
2026-04-23 22:28 29.43785 -13.06916 33011 ft 486 kts 49°
2026-04-23 22:28 29.45699 -13.03726 33227 ft 485 kts 49°
2026-04-23 22:28 29.47615 -13.00531 33497 ft 485 kts 49°
2026-04-23 22:28 29.49526 -12.97350 33729 ft 484 kts 49°
2026-04-23 22:29 29.51438 -12.94168 33960 ft 484 kts 49°
2026-04-23 22:29 29.53349 -12.90991 34104 ft 483 kts 49°
2026-04-23 22:29 29.55225 -12.87854 34132 ft 469 kts 49°
2026-04-23 22:29 29.57058 -12.84780 34133 ft 464 kts 49°
2026-04-23 22:30 29.60701 -12.78695 34130 ft 461 kts 49°
2026-04-23 22:30 29.64339 -12.72616 34130 ft 462 kts 49°
2026-04-23 22:31 29.67973 -12.66520 34133 ft 462 kts 49°
2026-04-23 22:31 29.71579 -12.60458 34128 ft 462 kts 49°
2026-04-23 22:32 29.75217 -12.54345 34129 ft 463 kts 49°
2026-04-23 22:32 29.78844 -12.48221 34136 ft 463 kts 49°
2026-04-23 22:33 29.82461 -12.42092 34166 ft 463 kts 49°
2026-04-23 22:33 29.86087 -12.35946 34156 ft 464 kts 49°
2026-04-23 22:34 29.89717 -12.29796 34147 ft 464 kts 49°
2026-04-23 22:34 29.93341 -12.23635 34142 ft 465 kts 50°
2026-04-23 22:35 29.96943 -12.17501 34137 ft 465 kts 50°
2026-04-23 22:35 30.00588 -12.11348 34139 ft 462 kts 46°
2026-04-23 22:36 30.04954 -12.06049 34136 ft 453 kts 36°
2026-04-23 22:36 30.09482 -12.00997 34131 ft 453 kts 37°
2026-04-23 22:37 30.14014 -11.95916 34123 ft 454 kts 37°
2026-04-23 22:37 30.18546 -11.90829 34128 ft 454 kts 37°
2026-04-23 22:38 30.23081 -11.85740 34131 ft 454 kts 37°
2026-04-23 22:38 30.27614 -11.80633 34134 ft 455 kts 37°
2026-04-23 22:39 30.32117 -11.75559 34130 ft 455 kts 37°
2026-04-23 22:39 30.36646 -11.70447 34129 ft 455 kts 37°
2026-04-23 22:40 30.41181 -11.65329 34130 ft 454 kts 37°
2026-04-23 22:41 30.47981 -11.57663 34155 ft 455 kts 37°
2026-04-23 22:41 30.51751 -11.53391 34146 ft 456 kts 37°
2026-04-23 22:42 30.57024 -11.47403 34142 ft 456 kts 37°
2026-04-23 22:42 30.60816 -11.43088 34130 ft 456 kts 37°
2026-04-23 22:43 30.65361 -11.37929 34128 ft 456 kts 37°
2026-04-23 22:43 30.69864 -11.32801 34118 ft 456 kts 37°
2026-04-23 22:44 30.74397 -11.27629 34117 ft 456 kts 37°
2026-04-23 22:44 30.78920 -11.22459 34155 ft 456 kts 36°
2026-04-23 22:45 30.83443 -11.17291 34133 ft 456 kts 36°
2026-04-23 22:45 30.87962 -11.12118 34132 ft 456 kts 36°
2026-04-23 22:46 30.92479 -11.06935 34126 ft 456 kts 36°
2026-04-23 22:46 30.96994 -11.01746 34126 ft 456 kts 36°
2026-04-23 22:47 31.01507 -10.96560 34124 ft 456 kts 36°
2026-04-23 22:47 31.06013 -10.91371 34173 ft 456 kts 36°
2026-04-23 22:48 31.10528 -10.86166 34119 ft 456 kts 36°
2026-04-23 22:48 31.15003 -10.80999 34113 ft 456 kts 36°
2026-04-23 22:49 31.19515 -10.75785 34116 ft 456 kts 36°
2026-04-23 22:49 31.24021 -10.70573 34116 ft 456 kts 36°
2026-04-23 22:50 31.28530 -10.65349 34116 ft 456 kts 36°
2026-04-23 22:50 31.33033 -10.60115 34118 ft 456 kts 36°
2026-04-23 22:51 31.37540 -10.54867 34146 ft 457 kts 36°
2026-04-23 22:51 31.42044 -10.49619 34134 ft 457 kts 36°
2026-04-23 22:52 31.46545 -10.44373 34125 ft 457 kts 36°
2026-04-23 22:52 31.51049 -10.39115 34117 ft 457 kts 36°
2026-04-23 22:53 31.55515 -10.33886 34122 ft 457 kts 36°
2026-04-23 22:53 31.60009 -10.28619 34122 ft 457 kts 36°
2026-04-23 22:54 31.64506 -10.23341 34113 ft 456 kts 36°
2026-04-23 22:54 31.68993 -10.18073 34131 ft 456 kts 37°
2026-04-23 22:55 31.73464 -10.12811 34111 ft 454 kts 37°
2026-04-23 22:55 31.77927 -10.07556 34109 ft 455 kts 37°
2026-04-23 22:56 31.82377 -10.02310 34108 ft 455 kts 37°
2026-04-23 22:56 31.86837 -9.97033 34110 ft 455 kts 37°
2026-04-23 22:57 31.91304 -9.91743 34108 ft 455 kts 37°
2026-04-23 22:57 31.95766 -9.86462 34116 ft 455 kts 37°
2026-04-23 22:58 32.00231 -9.81165 34143 ft 455 kts 38°
2026-04-23 22:58 32.04649 -9.75910 34137 ft 454 kts 38°
2026-04-23 22:59 32.09091 -9.70624 34131 ft 454 kts 38°
2026-04-23 22:59 32.13528 -9.65336 34120 ft 453 kts 38°
2026-04-23 23:00 32.17966 -9.60043 34120 ft 453 kts 38°
2026-04-23 23:00 32.22391 -9.54746 34117 ft 453 kts 38°
2026-04-23 23:01 32.26818 -9.49447 34151 ft 453 kts 39°
2026-04-23 23:01 32.31228 -9.44158 34096 ft 451 kts 40°
2026-04-23 23:02 32.35623 -9.38875 34088 ft 451 kts 40°
2026-04-23 23:02 32.40012 -9.33598 34089 ft 452 kts 40°
2026-04-23 23:03 32.44424 -9.28294 34090 ft 452 kts 40°
2026-04-23 23:03 32.48843 -9.22967 34086 ft 453 kts 40°
2026-04-23 23:04 32.53250 -9.17640 34093 ft 453 kts 40°
2026-04-23 23:04 32.57661 -9.12299 34135 ft 453 kts 41°
2026-04-23 23:05 32.62039 -9.07000 34119 ft 452 kts 41°
2026-04-23 23:05 32.66442 -9.01658 34106 ft 453 kts 41°
2026-04-23 23:06 32.70845 -8.96314 34106 ft 453 kts 41°
2026-04-23 23:06 32.75244 -8.90966 34102 ft 453 kts 41°
2026-04-23 23:07 32.79645 -8.85596 34102 ft 453 kts 41°
2026-04-23 23:07 32.84034 -8.80225 34093 ft 453 kts 41°
2026-04-23 23:08 32.88427 -8.74860 34122 ft 452 kts 42°
2026-04-23 23:08 32.92821 -8.69481 34104 ft 452 kts 43°
2026-04-23 23:09 32.97174 -8.64145 34102 ft 452 kts 43°
2026-04-23 23:09 33.01551 -8.58773 34101 ft 452 kts 43°
2026-04-23 23:10 33.05920 -8.53400 34099 ft 451 kts 43°
2026-04-23 23:10 33.10287 -8.48011 34100 ft 451 kts 43°
2026-04-23 23:11 33.14626 -8.42666 34100 ft 451 kts 43°
2026-04-23 23:11 33.19037 -8.37340 34096 ft 449 kts 37°
2026-04-23 23:12 33.24141 -8.33159 34075 ft 444 kts 28°
2026-04-23 23:12 33.29389 -8.29222 34077 ft 446 kts 28°
2026-04-23 23:13 33.34644 -8.25253 34084 ft 447 kts 28°
2026-04-23 23:13 33.39903 -8.21278 34094 ft 448 kts 28°
2026-04-23 23:14 33.45178 -8.17298 34112 ft 448 kts 30°
2026-04-23 23:14 33.50447 -8.13320 34111 ft 448 kts 30°
2026-04-23 23:15 33.55714 -8.09325 34111 ft 447 kts 30°
2026-04-23 23:15 33.60972 -8.05325 34107 ft 447 kts 30°
2026-04-23 23:16 33.66192 -8.01358 34109 ft 447 kts 30°
2026-04-23 23:16 33.71437 -7.97357 34117 ft 447 kts 31°
2026-04-23 23:17 33.76685 -7.93348 34114 ft 446 kts 30°
2026-04-23 23:17 33.81928 -7.89353 34106 ft 446 kts 30°
2026-04-23 23:18 33.87170 -7.85357 34106 ft 446 kts 30°
2026-04-23 23:18 33.92410 -7.81349 34105 ft 446 kts 30°
2026-04-23 23:19 33.97645 -7.77336 34130 ft 446 kts 31°
2026-04-23 23:19 34.02875 -7.73315 34124 ft 445 kts 31°
2026-04-23 23:20 34.08101 -7.69291 34126 ft 445 kts 31°
2026-04-23 23:20 34.13285 -7.65293 34122 ft 445 kts 32°
2026-04-23 23:21 34.18498 -7.61266 34119 ft 445 kts 31°
2026-04-23 23:21 34.23708 -7.57246 34086 ft 444 kts 32°
2026-04-23 23:22 34.28915 -7.53229 34107 ft 444 kts 33°
2026-04-23 23:22 34.34117 -7.49201 34103 ft 444 kts 33°
2026-04-23 23:23 34.39310 -7.45164 34099 ft 444 kts 33°
2026-04-23 23:23 34.44505 -7.41120 34097 ft 444 kts 33°
2026-04-23 23:24 34.49662 -7.37098 34097 ft 444 kts 33°
2026-04-23 23:24 34.54857 -7.33050 34105 ft 444 kts 33°
2026-04-23 23:25 34.60057 -7.28991 34092 ft 444 kts 33°
2026-04-23 23:25 34.65253 -7.24936 34093 ft 444 kts 33°
2026-04-23 23:26 34.70445 -7.20871 34070 ft 444 kts 34°
2026-04-23 23:26 34.75645 -7.16789 34077 ft 446 kts 34°
2026-04-23 23:27 34.80859 -7.12683 34089 ft 447 kts 34°
2026-04-23 23:27 34.86080 -7.08568 34093 ft 447 kts 34°
2026-04-23 23:28 34.91281 -7.04480 34100 ft 448 kts 34°
2026-04-23 23:28 34.96518 -7.00359 34102 ft 448 kts 34°
2026-04-23 23:29 35.01743 -6.96220 34102 ft 448 kts 34°
2026-04-23 23:29 35.06964 -6.92079 34110 ft 448 kts 34°
2026-04-23 23:30 35.12193 -6.87939 34104 ft 447 kts 34°
2026-04-23 23:30 35.17410 -6.83800 34075 ft 447 kts 34°
2026-04-23 23:31 35.22598 -6.79674 34076 ft 447 kts 34°
2026-04-23 23:31 35.27816 -6.75515 34080 ft 447 kts 34°
2026-04-23 23:32 35.33018 -6.71361 34085 ft 447 kts 34°
2026-04-23 23:32 35.38247 -6.67225 34083 ft 447 kts 34°
2026-04-23 23:33 35.43520 -6.63193 34080 ft 447 kts 33°
2026-04-23 23:33 35.48788 -6.59174 34078 ft 446 kts 33°
2026-04-23 23:34 35.53166 -6.55811 34083 ft 446 kts 33°
2026-04-23 23:34 35.58421 -6.51751 34076 ft 446 kts 34°
2026-04-23 23:34 35.61048 -6.49716 33807 ft 446 kts 34°
2026-04-23 23:35 35.64529 -6.47016 33445 ft 447 kts 34°
2026-04-23 23:35 35.66289 -6.45649 33237 ft 447 kts 34°
2026-04-23 23:35 35.68913 -6.43610 32978 ft 447 kts 34°
2026-04-23 23:35 35.71546 -6.41564 32708 ft 447 kts 34°
2026-04-23 23:36 35.74180 -6.39517 32445 ft 448 kts 34°
2026-04-23 23:36 35.76819 -6.37466 32185 ft 448 kts 34°
2026-04-23 23:36 35.79457 -6.35412 31932 ft 449 kts 34°
2026-04-23 23:36 35.82093 -6.33353 31682 ft 449 kts 34°
2026-04-23 23:37 35.84691 -6.31301 31432 ft 449 kts 36°
2026-04-23 23:37 35.87276 -6.29166 31141 ft 446 kts 37°
2026-04-23 23:37 35.89816 -6.26992 30650 ft 442 kts 38°
2026-04-23 23:37 35.92316 -6.24812 30158 ft 438 kts 38°
2026-04-23 23:38 35.94796 -6.22645 29619 ft 434 kts 38°
2026-04-23 23:38 35.97247 -6.20517 29140 ft 428 kts 37°
2026-04-23 23:38 35.99673 -6.18423 28678 ft 423 kts 37°
2026-04-23 23:38 36.02074 -6.16358 28197 ft 418 kts 37°
2026-04-23 23:39 36.04452 -6.14316 27738 ft 415 kts 37°
2026-04-23 23:39 36.06814 -6.12291 27284 ft 412 kts 37°
2026-04-23 23:39 36.09162 -6.10280 26850 ft 409 kts 37°
2026-04-23 23:39 36.11486 -6.08287 26379 ft 405 kts 37°
2026-04-23 23:40 36.13793 -6.06305 25983 ft 402 kts 37°
2026-04-23 23:40 36.16079 -6.04335 25564 ft 398 kts 37°
2026-04-23 23:40 36.18345 -6.02378 25149 ft 396 kts 37°
2026-04-23 23:40 36.20593 -6.00434 24746 ft 393 kts 37°
2026-04-23 23:41 36.22865 -5.98556 24349 ft 391 kts 31°
2026-04-23 23:41 36.25307 -5.97089 23940 ft 390 kts 21°
2026-04-23 23:41 36.27884 -5.96055 23498 ft 388 kts 17°
2026-04-23 23:41 36.30460 -5.95095 23075 ft 385 kts 17°
2026-04-23 23:42 36.33018 -5.94137 22668 ft 383 kts 17°
2026-04-23 23:42 36.35536 -5.93189 22256 ft 381 kts 17°
2026-04-23 23:42 36.38067 -5.92232 21856 ft 379 kts 17°
2026-04-23 23:42 36.40579 -5.91280 21431 ft 377 kts 17°
2026-04-23 23:43 36.43090 -5.90325 21015 ft 375 kts 17°
2026-04-23 23:43 36.45571 -5.89381 20602 ft 372 kts 17°
2026-04-23 23:43 36.48047 -5.88443 20188 ft 370 kts 17°
2026-04-23 23:43 36.50507 -5.87513 19776 ft 368 kts 17°
2026-04-23 23:44 36.52953 -5.86590 19358 ft 366 kts 17°
2026-04-23 23:44 36.55385 -5.85669 18954 ft 364 kts 17°
2026-04-23 23:44 36.57799 -5.84752 18551 ft 363 kts 17°
2026-04-23 23:44 36.60210 -5.83835 18115 ft 361 kts 17°
2026-04-23 23:45 36.62565 -5.82938 17719 ft 358 kts 17°
2026-04-23 23:45 36.64933 -5.82034 17330 ft 355 kts 17°
2026-04-23 23:45 36.67284 -5.81139 16930 ft 352 kts 17°
2026-04-23 23:45 36.69621 -5.80251 16544 ft 350 kts 17°
2026-04-23 23:46 36.71944 -5.79368 16163 ft 348 kts 17°
2026-04-23 23:46 36.74258 -5.78484 15774 ft 346 kts 17°
2026-04-23 23:46 36.76547 -5.77608 15397 ft 344 kts 17°
2026-04-23 23:46 36.78826 -5.76737 15011 ft 342 kts 17°
2026-04-23 23:47 36.81098 -5.75867 14628 ft 340 kts 17°
2026-04-23 23:47 36.83350 -5.75005 14249 ft 338 kts 17°
2026-04-23 23:47 36.85600 -5.74143 13861 ft 336 kts 17°
2026-04-23 23:47 36.87829 -5.73293 13454 ft 333 kts 17°
2026-04-23 23:48 36.90036 -5.72452 13066 ft 330 kts 17°
2026-04-23 23:48 36.92230 -5.71614 12670 ft 327 kts 17°
2026-04-23 23:48 36.94399 -5.70783 12289 ft 325 kts 17°
2026-04-23 23:48 36.96532 -5.69966 11914 ft 322 kts 17°
2026-04-23 23:49 37.00654 -5.68383 11166 ft 318 kts 17°
2026-04-23 23:49 37.02744 -5.67576 10789 ft 317 kts 17°
2026-04-23 23:49 37.04803 -5.66781 10407 ft 312 kts 17°
2026-04-23 23:50 37.06845 -5.65995 10267 ft 309 kts 17°
2026-04-23 23:50 37.08765 -5.65256 10159 ft 310 kts 17°
2026-04-23 23:50 37.10830 -5.64463 9957 ft 312 kts 17°
2026-04-23 23:50 37.12906 -5.63666 9522 ft 310 kts 17°
2026-04-23 23:51 37.14953 -5.62877 9117 ft 306 kts 18°
2026-04-23 23:51 37.16995 -5.62106 8677 ft 305 kts 13°
2026-04-23 23:51 37.19081 -5.61768 8265 ft 302 kts
2026-04-23 23:51 37.21177 -5.61634 7848 ft 299 kts
2026-04-23 23:52 37.23231 -5.61495 7170 ft 293 kts
2026-04-23 23:52 37.25246 -5.61355 6659 ft 289 kts
2026-04-23 23:52 37.27230 -5.61215 6196 ft 290 kts
2026-04-23 23:52 37.29237 -5.61074 5768 ft 288 kts
2026-04-23 23:53 37.31241 -5.60936 5274 ft 289 kts
2026-04-23 23:53 37.33245 -5.60798 4831 ft 288 kts
2026-04-23 23:53 37.35253 -5.60725 4234 ft 292 kts 355°
2026-04-23 23:53 37.37197 -5.61276 3973 ft 276 kts 338°
2026-04-23 23:54 37.38794 -5.62355 3849 ft 249 kts 323°
2026-04-23 23:54 37.40035 -5.63762 3685 ft 234 kts 310°
2026-04-23 23:54 37.40950 -5.65397 3465 ft 223 kts 297°
2026-04-23 23:54 37.41536 -5.67144 3226 ft 211 kts 285°
2026-04-23 23:55 37.41810 -5.68910 2965 ft 201 kts 273°
2026-04-23 23:55 37.41835 -5.70638 2710 ft 194 kts 268°
2026-04-23 23:55 37.41834 -5.72280 2470 ft 182 kts 265°
2026-04-23 23:55 37.41833 -5.73833 2225 ft 172 kts 266°
2026-04-23 23:56 37.41831 -5.75279 1997 ft 158 kts 266°
2026-04-23 23:56 37.41828 -5.76592 1799 ft 148 kts 267°
2026-04-23 23:56 37.41825 -5.77881 1600 ft 144 kts 266°
2026-04-23 23:56 37.41825 -5.79125 1352 ft 142 kts 268°
2026-04-23 23:57 37.41813 -5.80394 1118 ft 148 kts 266°
2026-04-23 23:57 37.41818 -5.81702 895 ft 151 kts 268°
2026-04-23 23:57 37.41814 -5.83037 766 ft 155 kts 267°
2026-04-23 23:57 37.41801 -5.84416 629 ft 162 kts 270°
2026-04-23 23:58 37.41801 -5.85829 437 ft 158 kts 268°
2026-04-23 23:58 37.41796 -5.87200 210 ft 154 kts 267°
2026-04-23 23:58 37.41803 -5.88487 150 ft 146 kts 268°
2026-04-23 23:58 37.41829 -5.89833 539 ft 162 kts 269°
2026-04-23 23:59 37.41463 -5.91184 1000 ft 169 kts 220°
2026-04-23 23:59 37.40468 -5.92086 1606 ft 188 kts 212°
2026-04-23 23:59 37.39357 -5.93060 1965 ft 206 kts 215°
2026-04-23 23:59 37.38150 -5.94138 2099 ft 214 kts 216°
2026-04-24 00:00 37.37055 -5.95358 2042 ft 205 kts 230°
2026-04-24 00:00 37.36038 -5.96593 2148 ft 202 kts 229°
2026-04-24 00:00 37.35526 -5.98182 2397 ft 197 kts 264°
2026-04-24 00:00 37.35944 -5.99798 2518 ft 200 kts 304°
2026-04-24 00:01 37.37007 -6.00893 2471 ft 199 kts 328°
2026-04-24 00:01 37.38290 -6.01441 2228 ft 191 kts 347°
2026-04-24 00:01 37.39570 -6.01518 2005 ft 176 kts
2026-04-24 00:01 37.40643 -6.00931 1781 ft 167 kts 41°
2026-04-24 00:02 37.41296 -5.99753 1445 ft 167 kts 66°
2026-04-24 00:02 37.41701 -5.98383 1120 ft 162 kts 79°
2026-04-24 00:02 37.41796 -5.97006 883 ft 162 kts 91°
2026-04-24 00:02 37.41773 -5.95599 706 ft 159 kts 93°
2026-04-24 00:03 37.41790 -5.94222 556 ft 156 kts 92°
2026-04-24 00:03 37.41795 -5.92842 356 ft 159 kts 92°
2026-04-24 00:03 37.41794 -5.91475 196 ft 153 kts 92°
2026-04-24 00:03 37.41794 -5.90210 97 ft 135 kts 91°
2026-04-24 00:04 37.41791 -5.89280 100 ft 78 kts 90°
2026-04-24 00:04 37.41794 -5.88958 103 ft 21 kts 89°
2026-04-24 00:04 37.41805 -5.88812 104 ft 11 kts 63°
2026-04-24 00:04 37.41864 -5.88766 104 ft 9 kts
2026-04-24 00:05 37.41939 -5.88753 103 ft 11 kts
2026-04-24 00:05 37.41983 -5.88810 102 ft 12 kts 283°
2026-04-24 00:05 37.41984 -5.88957 101 ft 19 kts 268°
2026-04-24 00:05 37.41983 -5.89121 100 ft 19 kts 271°
2026-04-24 00:06 37.41983 -5.89286 100 ft 16 kts 269°
2026-04-24 00:06 37.42012 -5.89392 100 ft 12 kts 306°
2026-04-24 00:06 37.42067 -5.89469 98 ft 12 kts 315°
2026-04-24 00:06 37.42125 -5.89537 98 ft 12 kts 316°
2026-04-24 00:07 37.42185 -5.89613 95 ft 13 kts 315°
2026-04-24 00:07 37.42249 -5.89694 101 ft 13 kts 314°
2026-04-24 00:07 37.42311 -5.89726 95 ft 7 kts 46°
2026-04-24 00:07 37.42339 -5.89687 96 ft 5 kts 47°
2026-04-24 00:08 37.42375 -5.89670 97 ft 6 kts 351°
2026-04-24 00:08 37.42404 -5.89701 95 ft 6 kts 315°
2026-04-24 00:08 37.42437 -5.89725 94 ft 4 kts 354°
2026-04-24 00:08 37.42460 -5.89713 96 ft 2 kts 39°
2026-04-24 00:09 37.42463 -5.89700 94 ft 0 kts 85°
2026-04-24 00:09 37.42462 -5.89694 94 ft 0 kts 94°